Snowfall_Accumulation
0.0 0.0 0.0 0.0 0.0 0.0 0.0 0.0 0.0 0.0 0.0 0.0 0.0 0.0 0.0 0.0 0.0 0.0 0.0 0.0 0.0 0.0 0.0 0.0 0.0 0.1 1.1 0.3 0.3 0.2 0.1 0.0 0.0 0.0 0.0 0.0 0.0 0.0 0.0 0.0 0.0 0.0 0.0 0.0
0.0 0.0 0.0 0.0 0.0 0.0 0.0 0.0 0.0 0.0 0.0 0.0 0.0 0.0 0.0 0.0 0.0 0.0 0.0 0.0 0.0 0.0 0.0 0.0 0.0 0.0 0.1 1.3 0.9 0.3 0.1 0.1 0.0 0.0 0.0 0.0 0.0 0.0 0.0 0.0 0.0 0.0 0.0 0.0
0.0 0.0 0.0 0.0 0.0 0.0 0.0 0.0 0.0 0.0 0.0 0.0 0.0 0.0 0.0 0.0 0.0 0.0 0.0 0.0 0.0 0.0 0.0 0.0 0.0 0.0 0.0 0.2 0.3 1.3 0.9 0.1 0.1 0.1 0.0 0.0 0.0 0.0 0.0 0.0 0.0 0.0 0.0 0.0
0.0 0.0 0.0 0.0 0.0 0.0 0.0 0.0 0.0 0.0 0.0 0.0 0.0 0.0 0.0 0.0 0.0 0.0 0.0 0.0 0.0 0.0 0.0 0.0 0.0 0.0 0.0 0.1 0.2 0.3 0.5 1.0 0.4 0.1 0.2 0.0 0.0 0.0 0.0 0.0 0.0 0.0 0.0 0.0
0.0 0.0 0.0 0.0 0.0 0.0 0.0 0.0 0.0 0.2 0.1 0.1 0.0 0.0 0.0 0.0 0.0 0.0 0.0 0.0 0.0 0.0 0.0 0.0 0.0 0.0 0.0 0.0 0.2 0.2 0.3 0.3 0.5 0.4 0.3 0.1 0.0 0.0 0.0 0.0 0.0 0.0 0.0 0.0
0.0 0.0 0.0 0.0 0.0 0.0 0.0 0.0 0.0 0.0 0.1 1.3 0.0 0.0 0.0 0.1 0.0 0.0 0.0 0.0 0.0 0.0 0.0 0.0 0.0 0.0 0.0 0.0 0.0 0.1 0.3 0.2 0.4 0.3 0.1 0.1 0.0 0.0 0.0 0.0 0.0 0.0 0.0 0.0
0.0 0.0 0.0 0.0 0.0 0.0 0.0 0.2 4.3 5.2 4.7 0.9 0.0 0.0 0.0 0.0 0.0 0.0 0.0 0.0 0.0 0.0 0.0 0.0 0.0 0.0 0.0 0.0 0.0 0.0 0.0 0.1 0.2 0.1 0.4 0.3 0.1 0.0 0.0 0.1 0.1 0.0 0.0 0.0
0.2 0.3 0.0 0.0 0.0 0.0 0.0 0.1 0.4 0.5 0.4 0.0 0.0 0.1 0.5 0.0 0.0 0.0 0.0 0.0 0.0 0.0 0.0 0.0 0.0 0.0 0.0 0.0 0.0 0.0 0.0 0.0 0.1 0.2 0.2 0.0 0.1 0.0 0.0 0.0 0.1 0.1 0.0 0.1
0.9 0.2 0.0 0.0 0.0 0.0 0.4 2.0 0.1 0.0 0.0 0.5 0.0 0.1 0.3 0.0 0.0 0.0 0.0 0.0 0.0 0.0 0.0 0.0 0.0 0.0 0.0 0.0 0.0 0.0 0.0 0.0 0.1 0.1 0.4 1.0 0.7 0.1 0.0 0.0 0.0 0.0 0.0 0.0
0.3 2.8 0.0 0.0 0.0 0.0 0.0 0.0 2.0 4.5 6.5 2.8 0.3 0.0 0.0 0.1 0.0 0.0 0.0 0.0 0.0 0.0 0.0 0.0 0.0 0.0 0.0 0.0 0.0 0.0 0.0 0.1 0.1 0.2 0.2 0.2 0.5 0.8 0.6 0.1 0.0 0.0 0.0 0.0
0.2 2.3 1.5 0.0 0.0 0.0 0.0 1.4 1.9 0.8 1.1 1.2 0.5 0.3 0.0 0.0 0.0 0.1 0.1 0.1 0.1 0.0 0.0 0.0 0.0 0.0 0.0 0.0 0.0 0.1 0.1 0.1 0.1 0.1 0.3 0.4 0.3 0.4 0.4 0.4 0.4 0.3 0.2 0.2
0.0 4.2 5.4 1.4 0.0 0.0 0.0 0.7 0.6 4.2 2.1 0.8 0.8 0.4 0.1 0.1 0.0 0.0 0.1 0.1 0.0 0.0 0.1 0.1 0.0 0.0 0.0 0.1 0.1 0.1 0.1 0.2 0.4 0.6 0.6 0.6 0.6 0.6 0.7 0.7 0.7 0.7 0.8 0.6
1.9 8.7 7.0 3.1 1.6 0.3 2.2 1.2 2.3 3.8 4.3 3.9 8.0 2.4 0.2 0.1 0.1 0.1 0.2 0.2 0.2 0.2 0.2 0.3 0.2 0.4 0.5 0.5 0.6 0.6 0.8 1.1 1.2 1.1 1.1 1.1 1.0 1.1 1.1 1.2 1.0 0.8 0.8 0.9
nan 4.8 3.5 5.0 2.6 2.3 3.8 3.0 1.9 5.9 21.1 5.4 4.4 3.5 3.2 1.4 1.0 0.4 0.5 0.8 1.7 1.9 2.0 1.9 2.1 2.7 3.5 3.9 4.0 3.7 3.6 3.3 3.0 2.6 2.3 2.2 2.3 2.3 2.3 2.0 2.2 1.8 1.7 1.9
1.5 6.2 0.8 0.5 0.3 1.2 3.0 1.8 1.2 5.8 5.6 13.0 4.6 3.9 6.2 4.6 4.5 4.3 3.6 2.4 2.5 3.2 3.5 3.8 4.3 4.7 5.3 5.6 5.5 5.6 5.7 6.2 6.6 5.8 5.8 6.2 5.7 5.1 5.0 4.7 4.7 4.4 4.1 3.5
2.9 6.7 0.6 1.9 0.5 1.0 3.3 2.6 1.7 1.4 2.2 5.4 5.4 5.7 6.6 4.3 2.6 3.3 3.2 2.9 3.7 3.9 3.6 3.6 4.1 4.4 4.4 4.4 4.5 4.2 4.1 4.4 4.4 5.1 6.1 5.5 5.0 4.9 5.2 4.5 4.8 4.9 5.0 4.7
3.2 4.2 6.1 11.0 0.7 1.5 6.1 2.8 0.4 0.9 0.8 1.3 4.0 2.4 3.2 4.1 4.0 4.6 4.2 4.4 4.6 4.5 5.1 5.1 4.7 4.4 4.0 3.7 3.5 3.9 3.4 3.1 3.2 3.4 3.2 3.2 2.9 2.8 2.9 2.8 2.6 2.7 2.8 2.6
2.6 3.6 4.6 14.3 3.7 20.6 4.8 1.7 2.2 1.6 3.9 4.4 4.3 4.8 6.4 8.1 8.3 7.5 7.2 6.7 8.2 6.8 5.5 5.1 5.8 6.4 5.2 4.8 4.2 3.5 3.3 3.2 3.0 2.8 2.7 2.4 2.0 1.9 1.6 1.5 1.4 1.4 1.3 1.4
1.1 3.8 12.3 20.3 7.4 4.8 4.8 5.6 4.5 6.2 3.8 6.6 6.9 6.8 8.6 10.0 10.6 16.2 10.5 7.5 7.3 8.4 7.4 7.0 5.8 6.4 5.8 4.9 4.6 3.8 3.4 3.0 3.0 2.9 2.2 1.7 1.4 1.3 1.1 1.0 0.9 0.8 0.7 0.6
1.0 1.5 3.2 7.6 16.3 9.4 5.2 3.2 3.5 6.5 6.8 4.5 5.3 7.9 10.0 8.9 14.5 9.3 9.2 8.5 9.9 8.9 8.7 9.3 6.7 6.3 5.3 5.4 4.3 3.5 2.7 2.2 2.1 1.6 1.2 0.5 0.5 0.6 0.6 0.6 0.5 0.4 0.4 0.3
1.3 3.8 11.6 4.8 17.5 12.0 6.5 5.4 4.8 13.7 8.6 4.7 4.7 6.5 8.9 10.0 8.7 8.4 8.3 11.8 8.4 9.3 9.0 8.4 6.9 6.5 5.5 3.6 2.7 2.2 1.6 1.1 0.4 0.3 0.4 0.4 0.3 0.2 0.2 0.1 0.1 0.1 0.1 0.1
4.7 9.3 5.3 8.9 19.2 23.4 6.2 6.3 9.3 11.7 10.0 9.2 7.4 7.4 7.3 7.4 8.3 9.0 10.7 12.2 10.9 10.6 11.7 8.5 5.5 4.5 4.0 3.0 2.5 2.5 2.1 1.3 0.7 0.5 0.4 0.2 0.1 0.0 0.0 0.0 0.0 0.0 0.0 0.1
7.3 7.7 11.7 14.8 18.4 12.2 8.9 7.8 11.4 11.3 9.5 7.8 6.3 6.4 6.8 7.3 7.8 8.2 9.2 8.8 7.8 6.7 7.1 6.3 4.8 4.3 3.2 2.3 1.7 1.6 1.5 1.1 0.8 0.4 0.2 0.1 0.0 0.0 0.0 0.0 0.0 0.1 0.0 0.3
4.3 4.0 9.8 8.9 7.8 8.0 9.6 10.8 9.5 8.3 8.2 7.1 5.5 5.4 4.4 6.1 5.4 5.9 5.3 6.3 6.7 6.2 5.3 5.0 5.1 4.8 3.9 2.5 1.8 1.4 1.1 1.0 0.8 0.7 0.4 0.1 0.1 0.0 0.0 0.1 0.1 0.3 0.5 0.8
9.3 3.9 5.1 6.9 6.3 11.4 10.8 9.0 9.5 8.4 6.6 6.1 6.0 4.4 4.6 2.9 4.9 3.9 5.0 5.2 4.7 5.2 4.9 3.6 3.3 3.1 2.9 2.4 2.0 1.2 0.9 0.6 0.6 0.4 0.3 0.2 0.1 0.1 0.2 0.2 0.5 0.7 0.4 0.9
8.3 8.6 10.0 10.0 10.9 12.4 10.0 8.5 7.0 6.0 6.2 3.8 1.9 4.1 4.6 2.0 3.1 3.2 4.1 3.7 3.9 4.1 3.9 3.5 3.0 2.3 2.2 1.6 1.4 1.1 0.7 0.4 0.4 0.3 0.4 0.7 0.9 0.9 0.9 1.5 2.2 nan nan nan
Water_Equivalent
0.00 0.00 0.00 0.00 0.00 0.00 0.00 0.00 0.00 0.00 0.00 0.00 0.00 0.00 0.00 0.00 0.00 0.00 0.00 0.00 0.00 0.00 0.00 0.00 0.00 0.02 0.43 0.12 0.11 0.10 0.05 0.00 0.00 0.00 0.00 0.00 0.00 0.00 0.00 0.00 0.00 0.00 0.00 0.00
0.00 0.00 0.00 0.00 0.00 0.00 0.00 0.00 0.00 0.00 0.00 0.00 0.00 0.00 0.00 0.00 0.00 0.00 0.00 0.00 0.00 0.00 0.00 0.00 0.00 0.00 0.04 0.53 0.34 0.12 0.05 0.04 0.00 0.01 0.00 0.00 0.00 0.00 0.00 0.00 0.00 0.00 0.00 0.00
0.00 0.00 0.00 0.00 0.00 0.00 0.00 0.00 0.00 0.00 0.00 0.00 0.00 0.00 0.00 0.00 0.00 0.00 0.00 0.00 0.00 0.00 0.00 0.00 0.00 0.00 0.01 0.06 0.11 0.51 0.34 0.05 0.03 0.02 0.00 0.00 0.00 0.00 0.00 0.00 0.00 0.00 0.00 0.00
0.00 0.00 0.00 0.00 0.00 0.00 0.00 0.00 0.00 0.00 0.01 0.00 0.00 0.00 0.00 0.00 0.00 0.00 0.00 0.00 0.00 0.00 0.00 0.00 0.00 0.00 0.00 0.04 0.09 0.14 0.18 0.40 0.17 0.05 0.08 0.01 0.01 0.01 0.00 0.00 0.00 0.00 0.00 0.00
0.00 0.00 0.00 0.00 0.00 0.00 0.00 0.00 0.00 0.03 0.01 0.01 0.00 0.00 0.00 0.00 0.00 0.00 0.00 0.00 0.00 0.00 0.00 0.00 0.00 0.00 0.00 0.00 0.05 0.09 0.09 0.12 0.20 0.17 0.10 0.06 0.01 0.00 0.00 0.00 0.00 0.00 0.00 0.00
0.00 0.00 0.00 0.00 0.00 0.00 0.00 0.00 0.00 0.00 0.01 0.19 0.00 0.00 0.00 0.01 0.00 0.00 0.00 0.00 0.00 0.00 0.00 0.00 0.00 0.00 0.00 0.00 0.00 0.02 0.12 0.06 0.16 0.13 0.05 0.03 0.02 0.00 0.00 0.00 0.00 0.00 0.00 0.00
0.00 0.00 0.00 0.00 0.00 0.00 0.00 0.04 0.57 0.62 0.59 0.12 0.00 0.02 0.00 0.00 0.00 0.00 0.00 0.00 0.00 0.00 0.00 0.00 0.00 0.00 0.00 0.00 0.00 0.00 0.01 0.03 0.08 0.05 0.17 0.12 0.02 0.00 0.00 0.03 0.04 0.00 0.00 0.00
0.05 0.11 0.00 0.00 0.00 0.00 0.00 0.01 0.07 0.05 0.09 0.00 0.00 0.01 0.06 0.00 0.00 0.00 0.00 0.00 0.00 0.00 0.00 0.00 0.00 0.00 0.00 0.00 0.00 0.00 0.00 0.01 0.02 0.09 0.07 0.01 0.03 0.01 0.01 0.00 0.02 0.03 0.01 0.05
0.15 0.03 0.00 0.00 0.00 0.00 0.06 0.28 0.01 0.01 0.00 0.05 0.00 0.01 0.03 0.00 0.00 0.00 0.00 0.00 0.00 0.00 0.00 0.00 0.00 0.00 0.00 0.00 0.01 0.01 0.01 0.01 0.02 0.02 0.07 0.20 0.15 0.02 0.01 0.01 0.00 0.00 0.00 0.00
0.07 0.40 0.00 0.00 0.00 0.00 0.00 0.00 0.27 0.65 0.70 0.27 0.04 0.00 0.00 0.01 0.00 0.00 0.00 0.00 0.00 0.00 0.00 0.00 0.00 0.00 0.00 0.01 0.01 0.01 0.01 0.02 0.02 0.04 0.05 0.04 0.09 0.15 0.11 0.02 0.01 0.01 0.00 0.00
0.06 0.42 0.23 0.00 0.00 0.01 0.00 0.22 0.31 0.13 0.15 0.14 0.05 0.03 0.00 0.00 0.00 0.01 0.01 0.01 0.01 0.01 0.01 0.00 0.00 0.00 0.01 0.01 0.01 0.01 0.02 0.03 0.02 0.02 0.05 0.07 0.06 0.07 0.07 0.06 0.06 0.05 0.03 0.03
0.01 0.93 0.83 0.21 0.00 0.00 0.00 0.13 0.10 0.57 0.26 0.12 0.11 0.06 0.01 0.01 0.00 0.00 0.01 0.01 0.01 0.00 0.01 0.01 0.00 0.00 0.00 0.01 0.01 0.02 0.02 0.03 0.06 0.08 0.08 0.08 0.08 0.08 0.09 0.09 0.10 0.10 0.10 0.09
0.47 1.51 0.95 0.41 0.20 0.06 0.37 0.21 0.39 0.64 0.66 0.54 0.99 0.32 0.03 0.01 0.01 0.01 0.02 0.02 0.02 0.02 0.03 0.04 0.03 0.05 0.07 0.07 0.08 0.08 0.11 0.14 0.15 0.14 0.15 0.15 0.14 0.15 0.17 0.18 0.15 0.11 0.12 0.12
nan 0.80 0.53 0.65 0.34 0.37 0.55 0.46 0.30 0.91 3.17 0.70 0.55 0.38 0.21 0.11 0.07 0.03 0.04 0.08 0.17 0.18 0.20 0.19 0.20 0.27 0.35 0.40 0.42 0.41 0.41 0.41 0.37 0.33 0.29 0.29 0.32 0.31 0.31 0.28 0.31 0.25 0.24 0.29
0.30 0.92 0.14 0.09 0.05 0.19 0.43 0.25 0.17 0.86 0.77 1.75 0.51 0.37 0.45 0.34 0.35 0.34 0.30 0.21 0.23 0.31 0.35 0.37 0.41 0.45 0.54 0.57 0.58 0.59 0.61 0.70 0.80 0.70 0.69 0.76 0.75 0.70 0.69 0.67 0.69 0.65 0.60 0.50
0.48 1.09 0.10 0.30 0.07 0.14 0.37 0.34 0.24 0.19 0.27 0.66 0.57 0.57 0.61 0.40 0.23 0.27 0.27 0.27 0.37 0.39 0.36 0.38 0.45 0.49 0.48 0.49 0.49 0.47 0.47 0.51 0.53 0.60 0.70 0.66 0.60 0.59 0.63 0.55 0.59 0.62 0.63 0.61
0.44 0.56 0.93 1.37 0.07 0.16 0.64 0.22 0.05 0.09 0.08 0.13 0.42 0.24 0.24 0.29 0.30 0.37 0.37 0.42 0.44 0.45 0.56 0.55 0.50 0.47 0.43 0.39 0.38 0.43 0.38 0.37 0.38 0.40 0.38 0.37 0.34 0.32 0.33 0.34 0.31 0.31 0.32 0.31
0.31 0.41 0.67 1.91 0.40 2.13 0.34 0.14 0.19 0.14 0.26 0.32 0.36 0.38 0.57 0.72 0.74 0.67 0.70 0.68 0.83 0.69 0.56 0.53 0.57 0.59 0.52 0.48 0.42 0.37 0.37 0.36 0.35 0.30 0.30 0.26 0.22 0.20 0.17 0.16 0.15 0.15 0.14 0.15
0.16 0.48 1.89 2.73 0.93 0.39 0.43 0.42 0.29 0.41 0.32 0.48 0.52 0.57 0.74 0.89 0.99 1.30 1.01 0.75 0.70 0.76 0.68 0.66 0.57 0.59 0.52 0.45 0.46 0.39 0.35 0.32 0.32 0.30 0.23 0.18 0.13 0.13 0.11 0.09 0.09 0.08 0.07 0.06
0.13 0.20 0.47 1.33 2.15 1.09 0.40 0.23 0.27 0.56 0.58 0.34 0.43 0.65 0.87 0.88 1.19 0.73 0.79 0.74 0.81 0.74 0.70 0.70 0.53 0.51 0.45 0.47 0.40 0.32 0.25 0.21 0.20 0.15 0.12 0.05 0.06 0.06 0.06 0.06 0.05 0.05 0.05 0.03
0.13 0.47 1.48 0.73 2.59 1.57 0.68 0.45 0.46 1.47 0.66 0.41 0.44 0.64 0.81 0.84 0.73 0.68 0.64 0.85 0.63 0.67 0.62 0.58 0.49 0.47 0.41 0.28 0.22 0.17 0.13 0.09 0.04 0.03 0.03 0.03 0.02 0.02 0.02 0.01 0.01 0.01 0.01 0.01
0.59 1.17 0.71 1.24 2.47 2.62 0.45 0.57 0.93 1.05 1.02 1.02 0.76 0.65 0.57 0.58 0.64 0.67 0.74 0.80 0.71 0.69 0.80 0.59 0.36 0.29 0.28 0.21 0.18 0.17 0.14 0.10 0.06 0.04 0.03 0.02 0.01 0.00 0.00 0.00 0.00 0.00 0.01 0.01
0.87 0.67 1.18 1.21 1.42 0.93 0.75 0.67 1.26 1.34 0.99 0.70 0.56 0.53 0.56 0.54 0.53 0.56 0.58 0.57 0.54 0.44 0.46 0.42 0.31 0.28 0.22 0.17 0.12 0.10 0.10 0.09 0.06 0.03 0.01 0.01 0.00 0.00 0.00 0.00 0.00 0.03 0.01 0.09
0.34 0.40 1.03 0.84 0.62 0.62 0.85 1.17 1.02 0.81 0.79 0.66 0.49 0.45 0.35 0.42 0.38 0.40 0.35 0.40 0.42 0.40 0.33 0.33 0.33 0.30 0.24 0.18 0.13 0.10 0.08 0.07 0.06 0.04 0.03 0.01 0.01 0.01 0.00 0.03 0.05 0.09 0.13 0.16
0.80 0.36 0.47 0.62 0.57 1.05 1.00 0.82 0.93 0.80 0.64 0.56 0.52 0.37 0.35 0.22 0.34 0.27 0.31 0.32 0.30 0.32 0.32 0.24 0.21 0.19 0.18 0.16 0.13 0.09 0.06 0.04 0.04 0.03 0.03 0.04 0.03 0.03 0.04 0.05 0.11 0.15 0.07 0.15
0.68 0.62 1.01 0.97 1.01 1.25 0.87 0.74 0.64 0.51 0.50 0.33 0.16 0.28 0.33 0.16 0.21 0.21 0.25 0.24 0.25 0.26 0.25 0.22 0.18 0.14 0.13 0.10 0.09 0.07 0.05 0.03 0.03 0.04 0.07 0.12 0.15 0.16 0.16 0.26 0.39 nan nan nan
SL_Ratio
nan nan nan nan nan nan nan nan nan nan nan nan nan nan nan nan nan nan nan nan nan nan nan nan nan 2.5 2.5 2.5 2.5 2.5 2.5 nan nan 0.0 nan nan nan nan nan nan nan nan nan nan
nan nan nan nan nan nan nan nan nan nan nan nan nan nan nan nan nan nan nan nan nan nan nan nan 0.0 3.3 2.5 2.5 2.5 2.5 2.5 2.5 nan 3.3 0.0 nan nan nan nan nan nan nan nan nan
nan nan nan nan nan nan nan nan nan nan nan nan nan nan nan nan nan nan nan nan nan nan nan nan nan 0.0 2.4 2.5 2.6 2.5 2.5 2.5 2.5 2.6 nan nan nan nan nan nan nan nan nan nan
nan nan nan nan nan nan 5.0 nan nan 6.0 7.0 8.9 nan 10.0 nan nan 10.0 nan nan nan nan nan nan nan nan nan 3.3 2.8 2.7 2.5 2.5 2.5 2.5 2.5 2.5 2.8 3.1 3.5 3.3 1.8 nan nan nan nan
nan nan nan nan nan nan nan nan nan 6.0 6.9 7.6 6.7 7.9 nan nan nan nan nan nan nan nan nan nan nan nan nan 3.3 3.0 2.8 2.7 2.5 2.5 2.5 2.5 2.5 2.9 3.1 4.0 2.2 nan nan nan nan
nan nan nan nan nan nan nan 10.0 nan 5.0 6.4 7.1 10.0 nan nan 9.2 5.0 nan nan nan nan nan nan nan nan nan nan nan 5.0 3.0 2.8 2.6 2.5 2.5 2.5 2.4 2.7 3.8 4.0 3.3 2.9 5.0 nan nan
nan nan nan nan 5.0 nan nan 6.2 7.5 8.3 8.0 7.5 nan 2.4 5.0 10.0 nan nan nan nan nan nan nan nan nan nan nan nan nan 3.3 3.2 3.0 2.6 2.5 2.5 2.5 2.5 2.7 2.9 3.0 3.0 2.7 4.0 3.3
4.4 2.8 nan nan nan 3.3 nan 6.4 5.7 10.1 4.9 5.8 nan 4.3 8.0 5.0 nan nan nan nan nan nan nan nan nan nan nan nan 0.0 5.0 3.8 3.2 2.8 2.7 3.6 2.6 2.6 3.2 2.9 2.9 3.2 2.8 2.9 2.7
5.7 6.3 nan nan nan nan 6.3 7.0 4.8 7.9 10.0 9.4 7.5 8.5 8.5 nan nan nan nan nan nan nan nan nan nan nan 3.3 4.2 3.8 4.0 3.6 3.1 3.2 3.5 5.1 5.0 4.8 3.7 4.0 3.3 2.9 3.3 3.3 3.3
4.5 7.0 6.0 nan nan nan 5.0 nan 7.6 6.9 9.4 10.1 9.1 6.7 2.7 10.5 nan nan 6.7 7.0 7.5 nan nan nan 5.0 5.0 3.8 3.3 3.6 3.1 3.3 4.1 3.9 3.5 3.9 4.1 5.5 5.5 5.4 4.9 3.9 3.8 3.3 2.5
3.4 5.5 6.4 4.7 5.0 5.7 10.0 6.2 6.2 6.4 7.4 8.8 9.8 8.5 nan nan 10.0 7.7 7.6 7.1 7.4 7.8 7.5 7.8 10.0 4.5 4.4 3.3 3.3 3.7 3.8 4.1 3.9 4.0 5.3 5.3 5.3 5.6 6.0 6.1 6.0 5.5 5.2 5.2
3.5 4.5 6.6 6.7 nan nan 5.7 5.7 5.9 7.5 8.0 7.0 7.1 6.7 7.3 7.4 nan 7.3 7.9 8.0 7.6 7.5 8.4 8.9 10.0 7.8 8.8 6.0 6.0 6.1 5.4 5.7 6.8 7.8 7.4 7.2 7.0 6.8 7.1 7.2 7.2 7.2 7.4 7.0
4.0 5.8 7.4 7.5 7.8 5.1 6.0 5.6 5.9 6.0 6.5 7.2 8.1 7.5 7.9 7.8 8.3 8.7 9.7 9.6 10.1 9.2 7.5 7.1 6.7 7.6 7.5 7.3 7.7 7.3 7.2 7.7 8.1 7.9 7.5 7.4 7.2 7.1 6.6 6.4 6.6 6.8 6.9 7.0
nan 6.0 6.6 7.6 7.7 6.3 6.8 6.6 6.3 6.5 6.6 7.7 8.0 9.2 15.5 13.1 13.3 12.1 12.2 10.6 10.5 10.6 10.3 10.1 10.1 10.2 9.9 9.7 9.6 9.1 8.9 8.0 8.0 8.0 7.8 7.6 7.3 7.3 7.4 7.3 7.2 7.1 7.0 6.6
5.1 6.8 5.9 5.7 6.4 6.5 7.1 7.1 6.7 6.7 7.3 7.5 9.1 10.6 13.8 13.6 13.0 12.5 12.0 11.2 10.9 10.4 10.2 10.2 10.5 10.3 9.8 9.7 9.5 9.5 9.2 8.8 8.3 8.4 8.3 8.2 7.7 7.3 7.2 6.9 6.8 6.8 6.8 6.9
6.0 6.2 5.9 6.3 7.0 7.2 8.9 7.6 7.1 7.3 7.9 8.2 9.4 9.9 10.7 10.9 11.4 12.4 11.9 10.8 10.0 9.9 9.9 9.5 9.1 9.0 9.1 9.1 9.2 8.8 8.6 8.6 8.3 8.5 8.7 8.3 8.3 8.3 8.3 8.1 8.1 7.9 8.0 7.6
7.2 7.5 6.5 8.1 9.1 8.8 9.5 12.7 8.7 9.5 9.6 9.7 9.6 9.9 13.5 14.0 13.6 12.2 11.3 10.4 10.3 9.9 9.1 9.2 9.4 9.4 9.5 9.5 9.2 9.1 8.9 8.3 8.4 8.4 8.5 8.6 8.5 8.8 8.7 8.4 8.4 8.6 8.6 8.5
8.3 8.8 7.0 7.5 9.3 9.7 13.9 11.8 11.2 11.4 15.0 13.7 12.0 12.6 11.3 11.3 11.3 11.2 10.3 9.9 9.9 9.8 9.7 9.6 10.2 10.8 10.0 9.9 10.0 9.5 9.0 8.8 8.7 9.1 9.2 9.2 9.2 9.3 9.2 9.2 9.3 9.3 9.3 9.3
6.6 8.0 6.5 7.4 8.0 12.5 11.3 13.2 15.6 14.9 11.9 13.7 13.2 12.1 11.6 11.2 10.7 12.4 10.3 10.0 10.5 11.1 10.9 10.6 10.1 10.9 11.1 10.9 10.1 9.8 9.7 9.5 9.3 9.5 9.9 9.9 10.1 10.3 10.2 10.4 10.1 9.7 9.6 9.5
7.4 7.6 6.8 5.7 7.6 8.7 13.0 13.8 12.8 11.5 11.9 13.2 12.2 12.2 11.6 10.1 12.2 12.8 11.6 11.5 12.2 12.0 12.4 13.2 12.6 12.2 11.8 11.6 10.9 10.8 10.8 10.6 10.7 10.3 10.3 10.1 9.5 9.6 9.8 9.9 10.0 9.3 9.0 8.6
9.4 8.1 7.9 6.5 6.8 7.7 9.6 12.0 10.4 9.4 12.9 11.5 10.7 10.2 10.9 12.0 11.9 12.3 12.9 13.9 13.3 13.9 14.4 14.4 14.1 13.7 13.4 12.7 12.3 13.0 12.7 12.4 10.7 11.1 11.2 11.0 10.8 11.0 10.5 10.0 9.7 9.8 8.9 8.6
8.1 7.9 7.5 7.1 7.8 8.9 13.8 11.0 10.0 11.1 9.8 9.1 9.8 11.4 12.7 12.8 12.9 13.5 14.4 15.3 15.3 15.4 14.7 14.3 15.0 15.2 14.7 13.8 13.7 14.4 14.4 12.8 11.9 11.5 11.9 12.0 12.1 10.0 10.0 10.0 8.6 7.5 6.5 6.5
8.4 11.5 9.9 12.3 12.9 13.2 11.8 11.6 9.1 8.4 9.5 11.1 11.1 12.0 12.0 13.4 14.6 14.8 15.9 15.4 14.6 15.1 15.5 15.0 15.4 15.5 14.6 13.8 13.4 14.8 14.2 13.0 12.8 13.3 13.6 13.1 11.7 12.0 10.0 12.0 6.7 3.3 3.8 3.9
12.9 10.1 9.5 10.5 12.6 12.9 11.3 9.3 9.3 10.3 10.4 10.8 11.2 12.0 12.5 14.3 14.2 14.9 15.1 15.9 16.1 15.6 15.9 15.3 15.6 16.1 16.0 14.4 14.1 14.2 13.9 13.8 14.5 15.1 14.6 9.7 5.9 4.8 3.8 2.7 2.8 3.5 3.8 4.6
11.5 10.7 11.0 11.1 11.0 10.8 10.8 10.9 10.1 10.4 10.3 11.0 11.6 11.8 13.1 13.1 14.6 14.4 15.9 16.1 15.9 16.0 15.6 15.1 15.9 16.1 16.3 15.3 15.2 14.5 14.5 14.7 15.1 13.4 8.5 4.7 3.6 4.0 4.4 4.0 4.4 4.7 5.6 6.3
12.2 13.8 9.9 10.4 10.7 10.0 11.4 11.4 10.9 11.7 12.5 11.6 11.6 14.7 13.8 12.7 14.9 15.3 16.2 15.7 15.7 16.1 15.9 16.3 16.4 16.7 16.6 16.2 16.1 15.5 14.8 14.5 11.3 7.4 5.1 5.4 5.8 5.3 5.3 5.7 5.7 nan nan nan